Location: Ferchesar
(52.6477°N, 12.4298°E)
Time: 09:50:13
(UTC+01:00)

X-37B - Visible Passes

Search period start: 21 January 2021 00:00
Search period end: 31 January 2021 00:00
Orbit: 384 x 390 km, 45.0° (Epoch: 02 January)

Date Brightness Start Highest point End Pass type
(mag) Time Alt. Az. Time Alt. Az. Time Alt. Az.
21 Jan 3.2 19:08:48 10° SSW 19:09:46 14° SSW 19:09:46 14° SSW visible
22 Jan 3.0 18:11:00 10° SSW 18:12:47 14° SSE 18:13:59 12° SE visible
22 Jan 3.9 19:46:13 10° SW 19:46:16 10° SW 19:46:16 10° SW visible
23 Jan 2.6 18:48:01 10° SW 18:50:26 20° S 18:50:28 20° S visible
24 Jan 2.8 17:49:57 10° SSW 17:52:10 17° SSE 17:54:23 10° ESE visible
24 Jan 3.2 19:25:42 10° SW 19:26:56 17° SW 19:26:56 17° SW visible
25 Jan 2.6 18:27:24 10° SW 18:29:53 21° S 18:31:09 17° SSE visible
26 Jan 2.8 17:29:10 10° SW 17:31:36 20° S 17:34:01 10° ESE visible
26 Jan 2.8 19:05:18 10° WSW 19:07:35 18° SSW 19:07:40 18° S visible
27 Jan 2.8 18:06:52 10° SW 18:09:19 20° S 18:11:46 10° SE visible
27 Jan 3.8 19:44:04 10° SW 19:44:15 10° SW 19:44:15 10° SW visible
28 Jan 3.2 18:45:04 10° SW 18:47:00 15° SSW 18:48:37 11° SSE visible
29 Jan 3.1 17:46:28 10° WSW 17:48:45 18° SSW 17:51:02 10° SE visible
30 Jan 3.6 18:25:14 10° SW 18:26:21 11° SSW 18:27:29 10° S visible
